Regional Weather Roundup
Issued by NWS State College, PA

Home | Current Version | Previous Version | Graphics & Text | Print | Product List | Glossary Off
Versions: 1 2 3 4 5 6 7 8 9 10 11 12 13 14 15 16 17 18 19 20 21 22 23 24 25 26 27 28 29 30 31 32 33 34 35 36 37 38 39 40 41 42 43 44 45 46 47 48 49 50

000
ASUS41 KCTP 252310
RWRCTP

REGIONAL WEATHER ROUNDUP
NATIONAL WEATHER SERVICE STATE COLLEGE PA
700 PM EDT FRI JUL 25 2014

Note: "fair" indicates few or no clouds below 12,000 feet with no
significant weather and/or obstructions to visibility.

* = STATION THAT DOES NOT REPORT PRECIPITATION /E.G. RAIN...SNOW...ETC/
    THUNDER OR FOG.

PAZ002>004-007>009-013>016-020>023-029>032-260000-
WESTERN PENNSYLVANIA

CITY           SKY/WX    TMP DP  RH WIND       PRES   REMARKS
ERIE           PTSUNNY   71  54  54 NW6       30.01F
MEADVILLE      PTSUNNY   71  51  49 W5        30.02F
FRANKLIN*      PTSUNNY   72  52  49 SW5       30.04S
NEW CASTLE       N/A     75  53  46 CALM      30.02F
BEAVER COUNTY  SUNNY     73  48  40 SW3       30.02F
BUTLER*        MOSUNNY   73  52  46 W5        30.05S
PITTSBURGH INT PTSUNNY   77  51  40 VRB5      30.02S
PITTSBURGH     MOSUNNY   76  49  38 S5        30.02S
INDIANA*       SUNNY     75  50  41 CALM      30.07F
LATROBE        PTSUNNY   73  54  49 W7        30.04S
WASHINGTON CO* MOSUNNY   75  54  46 SW5       30.03F
$$

PAZ004>006-010>012-017>019-024>028-033>037-041-042-045-046-049>053-260000-
CENTRAL PENNSYLVANIA

CITY           SKY/WX    TMP DP  RH WIND       PRES   REMARKS
BRADFORD       MOSUNNY   70  42  36 VRB3      30.04S
DUBOIS         SUNNY     70  51  51 SW7       30.03F
CLEARFIELD     SUNNY     74  50  42 W5        30.03S
JOHNSTOWN      SUNNY     70  46  42 W7        30.07S
ALTOONA        SUNNY     77  50  38 W6        30.04R
STATE COLLEGE  SUNNY     75  54  46 CALM      30.02S
WILLIAMSPORT   SUNNY     78  52  40 SE3       29.98R
SELINSGROVE    SUNNY     76  51  41 VRB3      30.01R
FT INDIANTOWN  SUNNY     78  47  32 VRB5      30.01R
CAPITAL CITY   SUNNY     78  47  33 W5        30.00R
HARRISBURG     MOSUNNY   80  55  42 CALM      29.99S
YORK           SUNNY     78  52  40 CALM      30.01S
$$

PAZ038>040-043-044-047-048-054-055-060>062-067>071-260000-
EASTERN PENNSYLVANIA

CITY           SKY/WX    TMP DP  RH WIND       PRES   REMARKS
SCRANTON       SUNNY     79  49  34 CALM      29.99S
MOUNT POCONO   SUNNY     72  55  55 S8        30.04R
ALLENTOWN      SUNNY     78  55  44 W6        29.99R
QUAKERTOWN*    CLEAR     77  57  50 SW3       30.00S
READING        SUNNY     79  50  36 W6        29.99R
LANCASTER      SUNNY     78  53  41 CALM      30.00S
COATESVILLE    CLEAR     75  50  41 CALM      30.02S
POTTSTOWN      MOSUNNY   79  52  38 SW6       30.00S
BLUE BELL      MOSUNNY   81  54  39 W5        29.98S
DOYLESTOWN     SUNNY     79  54  41 CALM      29.98S
WILLOW GROVE   NOT AVBL
NORTH PHILA    PTSUNNY   81  53  37 SE6       29.99S
PHILADELPHIA   MOSUNNY   82  54  37 SW10      29.99R
$$



USA.gov is the U.S. government's official web portal to all federal, state and local government web resources and services.